Regional Weather Roundup
Issued by NWS

Home | Current Version | Previous Version | Graphics & Text | Print | Product List | Glossary On
Versions: 1 2 3 4 5 6 7 8 9 10 11 12 13 14 15 16 17 18 19 20 21 22 23 24 25 26 27 28 29 30 31 32 33 34 35 36 37 38 39 40 41 42 43 44 45 46 47
000
ASUS45 KPSR 290510
RWRAZ

ARIZONA REGIONAL HOURLY WEATHER ROUNDUP
NATIONAL WEATHER SERVICE TUCSON AZ
1000 PM MST SUN MAY 28 2017

NOTE: FAIR INDICATES FEW OR NO CLOUDS BELOW 12,000 FEET WITH NO
SIGNIFICANT WEATHER AND/OR OBSTRUCTIONS TO VISIBILITY.

AZZ001>003-036-290600-
NORTHWEST ARIZONA

CITY           SKY/WX    TMP DP  RH WIND       PRES   REMARKS
BULLHEAD CITY  CLEAR     88  12   6 NE6       29.80R
KINGMAN        CLEAR     68  17  14 MISG      30.00R
$$

AZZ004>008-015-016-018-290600-
NORTH CENTRAL ARIZONA

CITY           SKY/WX    TMP DP  RH WIND       PRES   REMARKS
GRAND CANYON   CLEAR     45  25  45 CALM      30.23R
WILLIAMS       CLEAR     54  27  35 S7        30.21S
PRESCOTT       CLEAR     65  24  21 SW6       30.09R
FLAGSTAFF      PTCLDY    53  20  27 CALM      30.23R
PAYSON         CLEAR     70  23  17 NE6       30.15R
PAGE           CLEAR     71  18  13 VRB3      30.07R
$$

AZZ009>014-017-290600-
NORTHEAST ARIZONA

CITY           SKY/WX    TMP DP  RH WIND       PRES   REMARKS
WINSLOW        PTCLDY    65  15  14 NW5       30.10R
SAINT JOHNS    PTCLDY    66  21  18 E9        30.13R
WINDOW ROCK    PTCLDY    51  21  30 NE3       30.25R
SHOW LOW       CLEAR     54   9  16 CALM      30.20R
$$

AZZ023-290600-
GREATER PHOENIX AREA

CITY           SKY/WX    TMP DP  RH WIND       PRES   REMARKS
PHOENIX        CLEAR     88  24  10 CALM      29.79R
BUCKEYE        CLEAR     79  14   8 CALM      29.81R
LUKE AFB       CLEAR     82  33  17 CALM      29.79R
DEER VALLEY    CLEAR     82  18   9 CALM      29.82R
SCOTTSDALE     CLEAR     86  28  12 N3        29.84R
MESA-GATEWAY   CLEAR     84  23  10 CALM      29.88R
$$

AZZ027-028-290600-
SOUTHWEST MARICOPA COUNTY AND PINAL COUNTY

CITY           SKY/WX    TMP DP  RH WIND       PRES   REMARKS
CASA GRANDE    CLEAR     84  18   8 NW7       29.84R
$$

AZZ503-504-507>509-290600-
SOUTHEAST ARIZONA

CITY           SKY/WX    TMP DP  RH WIND       PRES   REMARKS
TUCSON         CLEAR     84  18   8 NW7       29.92R
DAVIS-MONTHAN  CLEAR     80  19  10 W7        29.91R
NOGALES        CLEAR     69  20  15 E5        30.02R
SIERRA VISTA   CLEAR     73   8   8 W12       30.07R
DOUGLAS        CLEAR     70   9   9 S8        30.01R
SAFFORD        CLEAR     76  12   8 NW8       29.92R
$$

AZZ020-021-025-026-031-290600-
SOUTHWEST ARIZONA

CITY           SKY/WX    TMP DP  RH WIND       PRES   REMARKS
YUMA           CLEAR     88  29  12 SW6       29.78R
$$

CAZ031-033-041-043-047-048-061-290600-
SOUTHERN CALIFORNIA

CITY           SKY/WX    TMP DP  RH WIND       PRES   REMARKS
DOWNTOWN L.A.  CLEAR     65  55  70 W3        29.97R
L.A. AIRPORT   PTCLDY    61  56  83 W9        29.98R
SAN DIEGO      CLOUDY    63  57  81 NW5       30.01R
BURBANK        CLEAR     64  52  64 SE7       29.97R
ONTARIO        PTCLDY    66  54  65 W9        29.97R
RIVERSIDE      CLEAR     65  55  70 W8        29.97R
PALM SPRINGS   CLEAR     89  48  24 NW13      29.82R
EL CENTRO NAS  CLEAR     87  36  16 W14       29.79R
IMPERIAL       CLEAR     82  45  27 W10       29.76R
BLYTHE         CLEAR     91  26   9 W14       29.77R
NEEDLES        CLEAR     87  11   6 CALM      29.81R
$$

NVZ020-UTZ003-290600-
SOUTHERN NEVADA-UTAH

CITY           SKY/WX    TMP DP  RH WIND       PRES   REMARKS
LAS VEGAS      CLEAR     85  16   7 W8        29.90R
SALT LAKE CITY CLEAR     67  43  41 CALM      30.15R
$$

NMZ009-TXZ055-290600-
NEW MEXICO-WEST TEXAS

CITY           SKY/WX    TMP DP  RH WIND       PRES   REMARKS
ALBUQUERQUE    PTCLDY    66  35  31 E9        30.19R
EL PASO        CLEAR     76  36  23 E13       30.06R
$$


........................KEY........................
SKY/WX - SKY CONDITION/WEATHER
TMP    - TEMPERATURE IN FAHRENHEIT
DP     - DEWPOINT IN FAHRENHEIT
RH     - RELATIVE HUMIDITY IN PERCENT
WIND   - DIRECTION AND SPEED IN MILES PER HOUR (MPH)
VRB    - VARIABLE WIND DIRECTION
PRES   - MEAN SEA LEVEL PRESSURE IN INCHES OF MERCURY
         F - FALLING PRESSURE   R - RISING PRESSURE
         S - STEADY PRESSURE
VSB    - VISIBILITY IN MILES
HX     - HEAT INDEX IN FAHRENHEIT
WCI    - WIND CHILL INDEX IN FAHRENHEIT
TC     - TEMPERATURE IN CELSIUS WHICH IS ALSO KNOWN AS
         TEMPERATURE IN CENTIGRADE
AFB    - AIR FORCE BASE
         LUKE AFB IS LUKE AIR FORCE BASE
         DAVIS-MONTHAN IS DAVIS-MONTHAN AIR FORCE BASE
NAS    - NAVAL AIR STATION
         EL CENTRO NAS IS EL CENTRO NAVAL AIR STATION
N/A    - NOT AVAILABLE





USA.gov is the U.S. government's official web portal to all federal, state and local government web resources and services.